Time,TemperatureF,DewpointF,PressureIn,WindDirection,WindDirectionDegrees,WindSpeedMPH,WindSpeedGustMPH,Humidity,HourlyPrecipIn,Conditions,Clouds,dailyrainin,SoftwareType,DateUTC
2013-08-07 00:02:00,48.0,31.0,-100.00,SE,136,3.0,3.0,53,-99.99,,,-99.99,,2013-08-07 06:02:00,
2013-08-07 00:11:00,48.0,31.0,-100.00,SE,136,3.0,3.0,53,-99.99,,,-99.99,,2013-08-07 06:11:00,
2013-08-07 00:52:00,44.0,33.0,-100.00,ESE,109,1.0,2.0,64,-99.99,,,-99.99,,2013-08-07 06:52:00,
2013-08-07 01:01:00,44.0,33.0,-100.00,ESE,109,1.0,2.0,64,-99.99,,,-99.99,,2013-08-07 07:01:00,
2013-08-07 01:12:00,44.0,33.0,-100.00,ESE,109,1.0,2.0,64,-99.99,,,-99.99,,2013-08-07 07:12:00,
2013-08-07 01:52:00,43.0,30.0,-100.00,ESE,119,3.0,4.0,59,-99.99,,,-99.99,,2013-08-07 07:52:00,
2013-08-07 02:01:00,43.0,30.0,-100.00,ESE,119,3.0,4.0,59,-99.99,,,-99.99,,2013-08-07 08:01:00,
2013-08-07 02:11:00,43.0,30.0,-100.00,ESE,119,3.0,4.0,59,-99.99,,,-99.99,,2013-08-07 08:11:00,
2013-08-07 02:52:00,40.0,30.0,-100.00,SSE,164,1.0,3.0,69,-99.99,,,-99.99,,2013-08-07 08:52:00,
2013-08-07 03:01:00,40.0,30.0,-100.00,SSE,164,1.0,3.0,69,-99.99,,,-99.99,,2013-08-07 09:01:00,
2013-08-07 03:11:00,40.0,30.0,-100.00,SSE,164,1.0,3.0,69,-99.99,,,-99.99,,2013-08-07 09:11:00,
2013-08-07 04:01:00,39.0,29.0,-100.00,ESE,104,2.0,3.0,69,-99.99,,,-99.99,,2013-08-07 10:01:00,
2013-08-07 04:11:00,39.0,29.0,-100.00,ESE,104,2.0,3.0,69,-99.99,,,-99.99,,2013-08-07 10:11:00,
2013-08-07 04:52:00,35.0,30.0,-100.00,ESE,120,1.0,2.0,79,-99.99,,,-99.99,,2013-08-07 10:52:00,
2013-08-07 05:01:00,35.0,30.0,-100.00,ESE,120,1.0,2.0,79,-99.99,,,-99.99,,2013-08-07 11:01:00,
2013-08-07 05:11:00,35.0,30.0,-100.00,ESE,120,1.0,2.0,79,-99.99,,,-99.99,,2013-08-07 11:11:00,
2013-08-07 05:53:00,34.0,29.0,-100.00,ESE,119,2.0,3.0,82,-99.99,,,-99.99,,2013-08-07 11:53:00,
2013-08-07 06:02:00,34.0,29.0,-100.00,ESE,119,2.0,3.0,82,-99.99,,,-99.99,,2013-08-07 12:02:00,
2013-08-07 06:11:00,34.0,29.0,-100.00,ESE,119,2.0,3.0,82,-99.99,,,-99.99,,2013-08-07 12:11:00,
2013-08-07 06:52:00,33.0,28.0,-100.00,South,169,1.0,2.0,84,-99.99,,,-99.99,,2013-08-07 12:52:00,
2013-08-07 07:02:00,33.0,28.0,-100.00,South,169,1.0,2.0,84,-99.99,,,-99.99,,2013-08-07 13:02:00,
2013-08-07 07:11:00,33.0,28.0,-100.00,South,169,1.0,2.0,84,-99.99,,,-99.99,,2013-08-07 13:11:00,
2013-08-07 07:53:00,39.0,30.0,-100.00,SE,145,0.0,1.0,71,-99.99,,,-99.99,,2013-08-07 13:53:00,
2013-08-07 08:01:00,39.0,30.0,-100.00,SE,145,0.0,1.0,71,-99.99,,,-99.99,,2013-08-07 14:01:00,
2013-08-07 08:11:00,39.0,30.0,-100.00,SE,145,0.0,1.0,71,-99.99,,,-99.99,,2013-08-07 14:11:00,
2013-08-07 09:12:00,48.0,33.0,-100.00,SSE,158,0.0,0.0,55,-99.99,,,-99.99,,2013-08-07 15:12:00,
2013-08-07 09:53:00,58.0,34.0,-100.00,WSW,253,0.0,1.0,40,-99.99,,,-99.99,,2013-08-07 15:53:00,
2013-08-07 10:02:00,58.0,34.0,-100.00,WSW,253,0.0,1.0,40,-99.99,,,-99.99,,2013-08-07 16:02:00,
2013-08-07 10:11:00,58.0,34.0,-100.00,WSW,253,0.0,1.0,40,-99.99,,,-99.99,,2013-08-07 16:11:00,
2013-08-07 10:53:00,65.0,37.0,-100.00,NNW,345,2.0,3.0,36,-99.99,,,-99.99,,2013-08-07 16:53:00,
2013-08-07 11:01:00,65.0,37.0,-100.00,NNW,345,2.0,3.0,36,-99.99,,,-99.99,,2013-08-07 17:01:00,
2013-08-07 11:11:00,65.0,37.0,-100.00,NNW,345,2.0,3.0,36,-99.99,,,-99.99,,2013-08-07 17:11:00,
2013-08-07 11:52:00,72.0,35.0,-100.00,North,6,3.0,5.0,26,-99.99,,,-99.99,,2013-08-07 17:52:00,
2013-08-07 12:02:00,72.0,35.0,-100.00,North,6,3.0,5.0,26,-99.99,,,-99.99,,2013-08-07 18:02:00,
2013-08-07 12:11:00,72.0,35.0,-100.00,North,6,3.0,5.0,26,-99.99,,,-99.99,,2013-08-07 18:11:00,
2013-08-07 12:52:00,75.0,32.0,-100.00,West,259,3.0,7.0,21,-99.99,,,-99.99,,2013-08-07 18:52:00,
2013-08-07 13:01:00,75.0,32.0,-100.00,West,259,3.0,7.0,21,-99.99,,,-99.99,,2013-08-07 19:01:00,
2013-08-07 13:11:00,75.0,32.0,-100.00,West,259,3.0,7.0,21,-99.99,,,-99.99,,2013-08-07 19:11:00,
2013-08-07 13:52:00,76.0,29.0,-100.00,WNW,298,7.0,14.0,18,-99.99,,,-99.99,,2013-08-07 19:52:00,
2013-08-07 14:02:00,76.0,29.0,-100.00,WNW,298,7.0,14.0,18,-99.99,,,-99.99,,2013-08-07 20:02:00,
2013-08-07 14:11:00,76.0,29.0,-100.00,WNW,298,7.0,14.0,18,-99.99,,,-99.99,,2013-08-07 20:11:00,
2013-08-07 15:01:00,77.0,31.0,-100.00,NW,307,7.0,12.0,19,-99.99,,,-99.99,,2013-08-07 21:01:00,
2013-08-07 15:11:00,77.0,31.0,-100.00,NW,307,7.0,12.0,19,-99.99,,,-99.99,,2013-08-07 21:11:00,
2013-08-07 15:52:00,78.0,28.0,-100.00,WNW,282,10.0,15.0,16,-99.99,,,-99.99,,2013-08-07 21:52:00,
2013-08-07 16:01:00,78.0,28.0,-100.00,WNW,282,10.0,15.0,16,-99.99,,,-99.99,,2013-08-07 22:01:00,
2013-08-07 16:12:00,78.0,28.0,-100.00,WNW,282,10.0,15.0,16,-99.99,,,-99.99,,2013-08-07 22:12:00,
2013-08-07 16:52:00,79.0,26.0,-100.00,NW,310,12.0,18.0,14,-99.99,,,-99.99,,2013-08-07 22:52:00,
2013-08-07 17:01:00,79.0,26.0,-100.00,NW,310,12.0,18.0,14,-99.99,,,-99.99,,2013-08-07 23:01:00,
2013-08-07 17:11:00,79.0,26.0,-100.00,NW,310,12.0,18.0,14,-99.99,,,-99.99,,2013-08-07 23:11:00,
2013-08-07 17:52:00,78.0,30.0,-100.00,West,280,8.0,13.0,17,-99.99,,,-99.99,,2013-08-07 23:52:00,
2013-08-07 18:01:00,78.0,30.0,-100.00,West,280,8.0,13.0,17,-99.99,,,-99.99,,2013-08-08 00:01:00,
2013-08-07 18:11:00,78.0,30.0,-100.00,West,280,8.0,13.0,17,-99.99,,,-99.99,,2013-08-08 00:11:00,
2013-08-07 18:52:00,77.0,29.0,-100.00,NW,324,4.0,8.0,17,-99.99,,,-99.99,,2013-08-08 00:52:00,
2013-08-07 19:02:00,77.0,29.0,-100.00,NW,324,4.0,8.0,17,-99.99,,,-99.99,,2013-08-08 01:02:00,
2013-08-07 19:11:00,77.0,29.0,-100.00,NW,324,4.0,8.0,17,-99.99,,,-99.99,,2013-08-08 01:11:00,
2013-08-07 19:52:00,75.0,28.0,-100.00,NW,319,5.0,8.0,18,-99.99,,,-99.99,,2013-08-08 01:52:00,
2013-08-07 20:02:00,75.0,28.0,-100.00,NW,319,5.0,8.0,18,-99.99,,,-99.99,,2013-08-08 02:02:00,
2013-08-07 20:11:00,75.0,28.0,-100.00,NW,319,5.0,8.0,18,-99.99,,,-99.99,,2013-08-08 02:11:00,
2013-08-07 21:52:00,57.0,27.0,-100.00,ESE,107,2.0,3.0,31,-99.99,,,-99.99,,2013-08-08 03:52:00,
2013-08-07 22:01:00,57.0,27.0,-100.00,ESE,107,2.0,3.0,31,-99.99,,,-99.99,,2013-08-08 04:01:00,
2013-08-07 22:11:00,57.0,27.0,-100.00,ESE,107,2.0,3.0,31,-99.99,,,-99.99,,2013-08-08 04:11:00,
2013-08-07 22:53:00,52.0,26.0,-100.00,SE,126,2.0,2.0,37,-99.99,,,-99.99,,2013-08-08 04:53:00,
2013-08-07 23:01:00,52.0,26.0,-100.00,SE,126,2.0,2.0,37,-99.99,,,-99.99,,2013-08-08 05:01:00,
2013-08-07 23:11:00,52.0,26.0,-100.00,SE,126,2.0,2.0,37,-99.99,,,-99.99,,2013-08-08 05:11:00,
2013-08-07 23:52:00,47.0,27.0,-100.00,ESE,110,3.0,3.0,46,-99.99,,,-99.99,,2013-08-08 05:52:00,